{"data":{"norad_id":900,"intl_designator":"1964-063C","name":"CALSPHERE 1","alt_names":[],"object_type":"PAYLOAD","status":"ACTIVE","operator":null,"country":"US","launch_date":"1964-10-06","launch_site_code":"AFWTR","launch_vehicle":null,"mission":null,"orbit_class":"UNKNOWN","rcs_meters":0.051,"size_class":null,"mass_kg":null,"dimensions":null,"purposes":["military"],"wikipedia_slug":null,"has_3d_model":false,"image_url":null,"decayed_at":null,"tle_current":{"epoch":"2026-09-20T04:12:27.527904Z","epoch_age_seconds":39074,"freshness":"FRESH","line1":"1 00900U 64063C   26263.17531861  .00000431  00000+0  42837-3 0  9993","line2":"2 00900  90.2179  73.9688 0026099   9.2904 109.6118 13.76708315 84492","mean_motion":13.76708315,"eccentricity":0.0026099,"inclination_deg":90.2179,"raan_deg":73.9688,"arg_perigee_deg":9.2904,"mean_anomaly_deg":109.6118,"bstar":0.00042837,"rev_number":8449,"period_min":104.597319876,"perigee_km":956.39268817605,"apogee_km":994.77764714681,"semimajor_km":7353.7221676614,"source":"CELESTRAK","updated_at":"2026-09-20T09:00:47.874205Z"}}}